View from above orbital plane
|
View from above satellite
|
Ground track
|
The orbit data is extracted from the following two-line orbital elements,
1 20303U 89085B 21018.39920613 .00002366 00000-0 75151-4 0 9993
2 20303 35.6419 99.3245 0093166 288.6587 70.4045 15.28441081701494
Epoch (UTC): | 18 January 2021 09:34:51 |
Eccentricity: | 0.0093166 |
inclination: | 35.6419° |
perigee height: | 416 km |
apogee height: | 544 km |
right ascension of ascending node: | 99.3245° |
argument of perigee: | 288.6587° |
revolutions per day: | 15.28441081 |
mean anomaly at epoch: | 70.4045° |
orbit number at epoch: | 70149 |
The dashed part of the orbit path shows where the satellite is in the earth's shadow,
|
|